CST,Max TemperatureF,Mean TemperatureF,Min TemperatureF,Max Dew PointF,MeanDew PointF,Min DewpointF,Max Humidity, Mean Humidity, Min Humidity, Max Sea Level PressureIn, Mean Sea Level PressureIn, Min Sea Level PressureIn, Max VisibilityMiles, Mean VisibilityMiles, Min VisibilityMiles, Max Wind SpeedMPH, Mean Wind SpeedMPH, Max Gust SpeedMPH,PrecipitationIn, CloudCover, Events, WindDirDegrees
2013-12-1,37,28,19,26,24,17,96,78,59,30.21,30.11,29.94,10,8,5,13,6,16,0.00,4,,50
2013-12-2,41,32,22,35,31,21,96,88,79,29.93,29.68,29.57,6,4,2,22,11,27,T,4,Rain,141
2013-12-3,37,34,31,37,35,31,100,100,100,29.72,29.63,29.58,2,1,0,17,8,19,0.07,8,Fog-Rain,78
2013-12-4,37,27,16,37,30,11,100,92,84,29.86,29.62,29.47,10,5,0,29,14,34,0.03,8,Fog-Rain-Snow,318
2013-12-5,15,9,2,8,3,-4,83,75,67,30.42,30.16,29.86,10,10,9,30,19,36,T,3,Snow,287
2013-12-6,10,3,-4,1,-5,-9,87,77,66,30.72,30.56,30.41,10,10,10,21,13,25,0.00,0,,312
2013-12-7,9,1,-8,2,-5,-11,83,69,55,30.81,30.71,30.53,10,9,2,13,5,15,T,2,Snow,328
2013-12-8,16,12,7,13,9,2,96,86,76,30.56,30.20,30.01,10,2,1,17,9,23,0.02,8,Snow,104
2013-12-9,14,3,-8,8,-5,-10,95,82,69,30.25,30.17,30.02,10,10,6,23,14,26,0.00,1,,257
2013-12-10,17,10,3,14,7,-2,88,77,66,30.29,30.06,29.84,10,6,1,33,17,42,0.02,6,Snow,268
2013-12-11,16,4,-9,14,-1,-13,92,81,69,30.65,30.44,30.23,10,8,2,30,12,33,0.00,3,Snow,298
2013-12-12,22,12,2,15,7,-4,100,85,69,30.42,30.30,30.17,10,10,8,25,9,35,0.00,2,,226
2013-12-13,23,13,2,17,11,0,92,83,73,30.19,30.12,30.06,10,8,2,21,11,24,0.00,1,,59
2013-12-14,17,12,6,14,10,-1,92,83,73,30.22,30.16,30.08,10,7,2,23,13,26,T,7,Snow,347
2013-12-15,8,6,3,4,1,-3,88,79,69,30.18,30.13,30.07,10,7,2,20,9,27,0.04,8,Snow,14
2013-12-16,21,14,7,18,10,3,96,88,80,30.13,30.07,29.99,10,7,3,17,11,20,T,6,,198
2013-12-17,32,23,14,24,18,10,92,77,62,30.18,30.11,30.02,10,10,6,35,18,42,T,1,,281
2013-12-18,39,24,8,30,21,6,92,80,67,30.14,29.86,29.73,10,10,10,18,10,24,0.00,0,,208
2013-12-19,31,26,21,26,20,17,92,87,81,29.96,29.90,29.81,10,10,4,21,15,26,T,4,,27
2013-12-20,21,20,18,20,18,16,100,92,84,29.96,29.91,29.87,10,7,2,20,11,23,T,8,Rain-Snow,7
2013-12-21,23,20,16,20,17,14,100,94,88,29.93,29.89,29.81,10,7,3,20,10,24,0.00,8,,1
2013-12-22,22,11,-1,19,10,-6,92,86,79,30.34,30.03,29.86,10,5,1,23,17,27,0.22,7,Snow,326
2013-12-23,1,-5,-11,-7,-11,-16,83,74,65,30.58,30.49,30.35,10,10,10,22,15,27,0.00,0,,305
2013-12-24,11,-2,-16,7,-2,-18,91,73,55,30.57,30.30,30.16,10,5,0,22,12,27,0.01,6,Snow,163
2013-12-25,30,21,11,26,17,7,92,83,73,30.23,30.15,30.10,10,6,0,29,13,33,0.01,7,Fog-Snow,251
2013-12-26,31,22,13,24,19,13,100,86,72,30.22,30.15,30.09,10,9,2,13,6,16,0.00,5,,234
2013-12-27,41,27,12,32,23,10,100,82,64,30.23,30.13,30.02,10,9,2,24,10,31,0.00,0,,239
2013-12-28,42,29,16,34,27,15,100,85,70,30.04,29.87,29.72,10,9,4,31,13,37,0.00,2,,222
2013-12-29,16,4,-8,14,-4,-14,100,83,65,30.38,30.24,30.00,10,8,3,32,20,40,T,4,Snow,318
2013-12-30,4,-3,-10,0,-5,-14,100,83,65,30.36,30.23,30.10,10,5,0,14,6,17,0.01,5,Fog-Snow,157
2013-12-31,3,-2,-8,0,-3,-8,95,87,79,30.37,30.30,30.22,10,4,0,16,9,18,0.10,7,Fog-Snow,24